This demonstration page uses our WeatherBlox Daily Observations layout. Learn more.

Left ArrowRight Arrow

39.29038, -76.61219

Hourly Observations for October 7, 2022

Temp ( °F °C ) Dew Point ( °F °C ) Humidity (%) Winds ( mph kmh ) Pressure ( in mb ) Visibility ( mi km ) Precip ( " mm )
12:54 am 00:54 undefined 65 18.3 53 11.7 65 65 undefined N/A 30.01 1016 N/A 0.00 0.00
1:54 am 01:54 undefined 63 17.2 52 11.1 67 67 undefined N/A 30.00 1016 N/A 0.00 0.00
2:54 am 02:54 undefined 62 16.7 50 10 65 65 undefined N/A 30.00 1016 N/A 0.00 0.00
3:54 am 03:54 undefined 61 16.1 49 9.4 64 64 undefined N/A 30.00 1016 N/A 0.00 0.00
4:54 am 04:54 undefined 61 16.1 49 9.4 64 64 undefined N/A 30.00 1016 N/A 0.00 0.00
5:54 am 05:54 undefined 60 15.6 48 8.9 64 64 undefined N/A 30.01 1016 N/A 0.00 0.00
6:54 am 06:54 undefined 59 15 48 8.9 67 67 undefined N/A 30.02 1017 N/A 0.00 0.00
7:54 am 07:54 undefined 60 15.6 48 8.9 64 64 undefined N/A 30.04 1017 N/A 0.00 0.00
8:54 am 08:54 undefined 65 18.3 47 8.3 52 52 undefined N/A 30.04 1017 N/A 0.00 0.00
9:54 am 09:54 undefined 69 20.6 51 10.6 53 53 undefined N/A 30.04 1017 N/A 0.00 0.00
10:54 am 10:54 undefined 73 22.8 48 8.9 41 41 undefined N/A 30.04 1017 N/A 0.00 0.00
11:54 am 11:54 undefined 76 24.4 47 8.3 36 36 undefined N/A 30.03 1017 N/A 0.00 0.00
12:54 pm 12:54 undefined 79 26.1 46 7.8 31 31 undefined N/A 30.01 1016 N/A 0.00 0.00
1:54 pm 13:54 undefined 80 26.7 47 8.3 31 31 undefined N/A 29.99 1016 N/A 0.01 0.25
2:54 pm 14:54 undefined 80 26.7 48 8.9 33 33 undefined N/A 29.97 1015 N/A 0.00 0.00
3:54 pm 15:54 undefined 81 27.2 48 8.9 32 32 undefined N/A 29.97 1015 N/A 0.00 0.00
4:54 pm 16:54 undefined 80 26.7 47 8.3 31 31 undefined N/A 29.98 1015 N/A 0.00 0.00
5:54 pm 17:54 undefined 78 25.6 48 8.9 35 35 undefined N/A 29.97 1015 N/A 0.00 0.00
6:54 pm 18:54 undefined 76 24.4 49 9.4 39 39 undefined N/A 29.98 1015 N/A 0.00 0.00
7:54 pm 19:54 undefined 74 23.3 52 11.1 46 46 undefined N/A 30.01 1016 N/A 0.00 0.00
8:54 pm 20:54 undefined 69 20.6 51 10.6 53 53 undefined N/A 30.06 1018 N/A 0.00 0.00
9:54 pm 21:54 undefined 67 19.4 50 10 55 55 undefined N/A 30.10 1019 N/A 0.00 0.00
10:54 pm 22:54 undefined 64 17.8 48 8.9 56 56 undefined N/A 30.11 1020 N/A 0.00 0.00
11:54 pm 23:54 undefined 63 17.2 46 7.8 54 54 undefined N/A 30.14 1021 N/A 0.00 0.00

Powered by AerisWeather